This demonstration page uses our WeatherBlox Daily Observations layout. Learn more.

Left ArrowRight Arrow

34.16533, -84.80231

Hourly Observations for June 13, 2019

Temp ( °F °C ) Dew Point ( °F °C ) Humidity (%) Winds ( mph kmh ) Pressure ( in mb ) Visibility ( mi km ) Precip ( " mm )
12:53 am 00:53 Mostly Cloudy 66 18.9 64 17.8 93 93 ESE 3 6 29.90 1013 10 16 0.00 0.00
1:03 am 01:03 Mostly Cloudy 66 18.9 64 17.8 93 93 Calm 29.92 1013 10 16 0.00 0.00
1:22 am 01:22 Cloudy 66 18.9 64 17.8 93 93 Calm 29.92 1013 10 16 0.00 0.00
1:53 am 01:53 Cloudy 66 18.9 64 17.8 93 93 Calm 29.89 1012 10 16 0.00 0.00
2:53 am 02:53 Cloudy 66 18.9 64 17.8 93 93 Calm 29.89 1012 10 16 0.00 0.00
3:53 am 03:53 Mostly Cloudy 65 18.3 64 17.8 97 97 Calm 29.89 1012 10 16 0.00 0.00
4:12 am 04:12 Partly Cloudy 64 17.8 63 17.2 96 96 Calm 29.91 1013 9 14 0.00 0.00
4:23 am 04:23 Mostly Cloudy 63 17.2 63 17.2 100 100 Calm 29.91 1013 9 14 0.00 0.00
4:53 am 04:53 Cloudy 63 17.2 63 17.2 100 100 Calm 29.89 1012 10 16 0.00 0.00
5:19 am 05:19 Partly Cloudy 62 16.7 61 16.1 96 96 Calm 29.92 1013 9 14 0.00 0.00
5:53 am 05:53 Clear 61 16.1 61 16.1 100 100 Calm 29.90 1013 10 16 0.00 0.00
6:53 am 06:53 Sunny 62 16.7 61 16.1 96 96 Calm 29.92 1013 7 11 0.00 0.00
7:53 am 07:53 Sunny 65 18.3 63 17.2 93 93 Calm 29.93 1014 10 16 0.00 0.00
8:53 am 08:53 Sunny 68 20 61 16.1 78 78 VRB 3 6 29.95 1014 10 16 0.00 0.00
9:53 am 09:53 Sunny 71 21.7 58 14.4 63 63 VRB 3 6 29.96 1015 10 16 0.00 0.00
10:53 am 10:53 Sunny 74 23.3 55 12.8 52 52 VRB 6 9 29.96 1015 10 16 0.00 0.00
11:53 am 11:53 Sunny 75 23.9 53 11.7 46 46 NNW 8 13 29.98 1015 10 16 0.00 0.00
12:53 pm 12:53 Mostly Sunny 76 24.4 55 12.8 48 48 VRB 5 7 29.98 1015 10 16 0.00 0.00
1:53 pm 13:53 Sunny 77 25 54 12.2 45 45 VRB 7 11 29.98 1015 10 16 0.00 0.00
2:53 pm 14:53 Mostly Sunny 77 25 52 11.1 42 42 VRB 5 7 29.98 1015 10 16 0.00 0.00
3:53 pm 15:53 Sunny 79 26.1 53 11.7 41 41 VRB 3 6 29.99 1016 10 16 0.00 0.00
4:53 pm 16:53 Mostly Cloudy 79 26.1 52 11.1 39 39 NNW 9 15 29.99 1016 10 16 0.00 0.00
5:53 pm 17:53 Mostly Sunny 79 26.1 49 9.4 35 35 undefined N/A 30.00 1016 10 16 0.00 0.00
6:53 pm 18:53 Mostly Sunny 77 25 52 11.1 42 42 Calm 30.01 1016 10 16 0.00 0.00
7:53 pm 19:53 Sunny 73 22.8 52 11.1 48 48 Calm 30.01 1016 10 16 0.00 0.00
8:53 pm 20:53 Clear 68 20 53 11.7 59 59 Calm 30.02 1017 10 16 0.00 0.00
9:53 pm 21:53 Clear 61 16.1 55 12.8 81 81 Calm 30.05 1018 10 16 0.00 0.00
10:53 pm 22:53 Clear 59 15 55 12.8 87 87 Calm 30.07 1018 10 16 0.00 0.00
11:53 pm 23:53 Clear 58 14.4 55 12.8 90 90 Calm 30.09 1019 10 16 0.00 0.00

Powered by AerisWeather